CW4859 Weather Reports


Display with metric or nautical units.
time (UTC)temp
F
wind
direction
speed
MPH
gust
MPH
rain 1hr
in
rain 24hr
in
rain mn
in
humidity
%
barometer
mb
20260510174430 78 252 5.0 6.0 0.00 0.11 0.00 55 1010.3
20260510173930 78 172 3.0 6.0 0.00 0.11 0.00 57 1010.3
20260510173430 78 165 3.0 8.0 0.00 0.11 0.00 55 1010.3
20260510172930 78 323 5.0 8.0 0.00 0.11 0.00 56 1010.3
20260510172430 77 303 1.0 4.0 0.00 0.11 0.00 57 1010.3
20260510171930 77 166 3.0 6.0 0.00 0.11 0.00 57 1010.3
20260510171430 77 222 3.0 4.0 0.00 0.11 0.00 59 1010.3
20260510170930 77 185 2.0 5.0 0.00 0.11 0.00 58 1010.3
20260510170430 77 305 1.0 6.0 0.00 0.11 0.00 63 1010.3
20260510165930 76 177 2.0 6.0 0.00 0.11 0.00 61 1010.5
20260510165430 76 169 4.0 7.0 0.00 0.11 0.00 61 1010.5
20260510164933 76 188 4.0 8.0 0.00 0.11 0.00 63 1010.5
20260510164430 75 257 2.0 4.0 0.00 0.11 0.00 64 1010.6
20260510163930 74 279 1.0 9.0 0.00 0.11 0.00 61 1010.6
20260510163430 74 159 5.0 5.0 0.00 0.11 0.00 66 1010.6
20260510162930 74 263 3.0 7.0 0.00 0.11 0.00 64 1010.6
20260510162430 73 246 5.0 7.0 0.00 0.11 0.00 66 1010.6
20260510161930 73 202 2.0 3.0 0.00 0.11 0.00 70 1010.6
20260510161430 72 24 2.0 4.0 0.00 0.11 0.00 69 1010.8
20260510160930 72 46 1.0 6.0 0.00 0.11 0.00 69 1010.8
20260510160430 71 338 6.0 8.0 0.00 0.11 0.00 69 1010.8
20260510155930 71 286 8.0 8.0 0.00 0.11 0.00 71 1011.0
20260510155430 71 239 3.0 5.0 0.00 0.11 0.00 71 1011.0
20260510154930 71 235 1.0 4.0 0.00 0.11 0.00 73 1011.0
20260510154430 70 183 2.0 4.0 0.00 0.11 0.00 74 1010.9
20260510153930 69 309 3.0 4.0 0.00 0.11 0.00 76 1010.9
20260510153430 68 185 1.0 3.0 0.00 0.11 0.00 77 1010.9
20260510152930 68 223 2.0 3.0 0.00 0.11 0.00 82 1011.2
20260510152430 67 157 2.0 3.0 0.00 0.11 0.00 82 1011.2
20260510151933 66 161 1.0 4.0 0.00 0.11 0.00 83 1011.2
20260510151430 65 229 1.0 2.0 0.00 0.11 0.00 87 1011.1
20260510150930 64 196 1.0 2.0 0.00 0.11 0.00 88 1011.1
20260510150430 64 292 0.0 4.0 0.00 0.11 0.00 89 1011.1
20260510145930 63 205 2.0 4.0 0.00 0.11 0.00 91 1011.0
20260510145430 62 329 3.0 5.0 0.00 0.11 0.00 91 1011.0
20260510144930 61 302 1.0 4.0 0.00 0.11 0.00 92 1011.0
20260510144430 61 319 3.0 4.0 0.00 0.11 0.00 92 1011.3
20260510143930 61 321 2.0 3.0 0.00 0.11 0.00 93 1011.3
20260510143430 60 53 0.0 2.0 0.00 0.11 0.00 93 1011.3
20260510142930 60 121 2.0 3.0 0.00 0.11 0.00 94 1011.1
20260510142433 59 202 0.0 0.0 0.00 0.11 0.00 94 1011.1
20260510141930 59 36 0.0 0.0 0.00 0.11 0.00 95 1011.1
20260510141430 58 36 0.0 3.0 0.00 0.11 0.00 95 1011.3
20260510140930 58 200 0.0 3.0 0.00 0.11 0.00 95 1011.3
20260510140430 57 300 0.0 0.0 0.00 0.11 0.00 95 1011.3
20260510135933 57 295 0.0 2.0 0.00 0.11 0.00 95 1010.9
20260510135430 57 306 0.0 2.0 0.00 0.11 0.00 95 1010.9
20260510134933 57 306 0.0 3.0 0.00 0.11 0.00 96 1010.9
20260510134433 57 348 0.0 0.0 0.00 0.11 0.00 95 1010.9
20260510133933 56 348 0.0 1.0 0.00 0.11 0.00 96 1010.9
20260510133430 56 202 0.0 2.0 0.00 0.11 0.00 96 1010.9
20260510132930 56 202 0.0 2.0 0.00 0.11 0.00 95 1011.3
20260510132433 56 202 0.0 0.0 0.00 0.11 0.00 96 1011.3
20260510131930 56 202 0.0 3.0 0.00 0.11 0.00 96 1011.3
20260510131430 56 157 1.0 3.0 0.00 0.11 0.00 95 1010.9
20260510130930 55 316 0.0 1.0 0.00 0.11 0.00 95 1010.9
20260510130430 55 316 0.0 1.0 0.00 0.11 0.00 96 1010.9
20260510125933 55 316 0.0 2.0 0.00 0.11 0.00 95 1010.8
20260510125430 55 316 1.0 1.0 0.00 0.11 0.00 95 1010.8
20260510124930 55 316 0.0 3.0 0.00 0.11 0.00 95 1010.8
20260510124430 54 316 0.0 0.0 0.00 0.11 0.00 95 1010.4
20260510123930 54 316 0.0 0.0 0.00 0.11 0.00 95 1010.4
20260510123433 54 316 0.0 2.0 0.00 0.11 0.00 95 1010.4
20260510122930 54 316 0.0 1.0 0.00 0.11 0.00 95 1010.6
20260510122430 54 316 0.0 1.0 0.00 0.11 0.00 95 1010.6
20260510121933 54 316 1.0 2.0 0.00 0.11 0.00 95 1010.6
20260510121430 54 316 0.0 3.0 0.00 0.11 0.00 95 1010.6
20260510120930 53 325 0.0 2.0 0.00 0.11 0.00 95 1010.6
20260510120430 53 300 0.0 0.0 0.00 0.11 0.00 95 1010.6
20260510115930 53 298 0.0 1.0 0.00 0.11 0.00 95 1010.3
20260510115430 53 298 1.0 3.0 0.00 0.11 0.00 95 1010.3
20260510114933 53 309 3.0 3.0 0.00 0.11 0.00 95 1010.3
20260510114430 53 331 1.0 3.0 0.00 0.11 0.00 95 1010.3
20260510113930 53 331 2.0 4.0 0.00 0.11 0.00 95 1010.3
20260510113430 53 15 0.0 4.0 0.00 0.11 0.00 95 1010.3
20260510112932 53 331 2.0 4.0 0.00 0.11 0.00 95 1010.2
20260510112430 53 333 3.0 5.0 0.00 0.11 0.00 95 1010.2
20260510111930 53 5 1.0 3.0 0.00 0.11 0.00 95 1010.2
20260510111430 53 23 3.0 4.0 0.00 0.11 0.00 95 1009.9
20260510110932 53 69 3.0 4.0 0.00 0.11 0.00 95 1009.9
20260510110429 53 83 2.0 2.0 0.00 0.11 0.00 95 1009.9
20260510105930 53 10 0.0 3.0 0.00 0.11 0.00 95 1009.8
20260510105432 53 14 1.0 4.0 0.00 0.11 0.00 95 1009.8
20260510104932 52 318 2.0 5.0 0.00 0.11 0.00 95 1009.8
20260510104432 52 337 1.0 6.0 0.00 0.11 0.00 95 1009.6
20260510103930 52 126 1.0 5.0 0.00 0.11 0.00 95 1009.6
20260510103429 52 34 1.0 5.0 0.00 0.11 0.00 95 1009.6
20260510102930 52 36 2.0 4.0 0.00 0.11 0.00 95 1009.5
20260510102432 51 90 0.0 2.0 0.00 0.11 0.00 95 1009.5
20260510101931 51 347 0.0 0.0 0.00 0.11 0.00 95 1009.5
20260510101430 51 347 0.0 0.0 0.00 0.11 0.00 95 1009.5
20260510100929 51 347 0.0 2.0 0.00 0.11 0.00 95 1009.5
20260510100429 51 347 0.0 1.0 0.00 0.11 0.00 94 1009.5
20260510095929 51 347 0.0 2.0 0.00 0.11 0.00 94 1009.6
20260510095429 51 347 0.0 1.0 0.00 0.11 0.00 94 1009.6
20260510094932 51 315 0.0 0.0 0.00 0.11 0.00 94 1009.6
20260510094432 51 315 0.0 0.0 0.00 0.11 0.00 94 1009.4
20260510093929 50 315 0.0 5.0 0.00 0.11 0.00 94 1009.4
20260510093429 50 335 4.0 4.0 0.00 0.11 0.00 94 1009.4
20260510092932 50 320 1.0 6.0 0.00 0.11 0.00 94 1009.6
20260510092429 50 65 0.0 4.0 0.00 0.11 0.00 94 1009.6
20260510091929 50 308 2.0 7.0 0.00 0.11 0.00 94 1009.6
20260510091429 50 53 1.0 8.0 0.00 0.11 0.00 94 1009.5
20260510090929 50 292 5.0 7.0 0.00 0.11 0.00 94 1009.5
20260510090431 50 300 8.0 8.0 0.00 0.11 0.00 94 1009.5
20260510085929 50 328 3.0 10.0 0.00 0.11 0.00 94 1008.8
20260510085432 50 317 3.0 5.0 0.00 0.11 0.00 94 1008.8
20260510084929 50 344 0.0 0.0 0.00 0.11 0.00 93 1008.8
20260510084429 50 344 0.0 0.0 0.00 0.11 0.00 94 1008.8
20260510083929 50 344 0.0 0.0 0.00 0.11 0.00 94 1008.8
20260510083429 50 344 0.0 0.0 0.00 0.11 0.00 93 1008.8
20260510082929 50 344 0.0 2.0 0.00 0.11 0.00 93 1008.8
20260510082429 50 344 1.0 2.0 0.00 0.11 0.00 93 1008.8
20260510081929 50 344 0.0 0.0 0.00 0.11 0.00 93 1008.8
20260510081429 50 344 0.0 0.0 0.00 0.11 0.00 93 1008.8
20260510080929 50 344 0.0 0.0 0.00 0.11 0.00 93 1008.8
20260510080429 50 344 0.0 0.0 0.00 0.11 0.00 93 1008.8
20260510075929 50 344 0.0 2.0 0.00 0.11 0.00 93 1008.8
20260510075429 50 344 0.0 0.0 0.00 0.11 0.00 93 1008.8
20260510074929 50 344 0.0 1.0 0.00 0.11 0.00 93 1008.8
20260510074432 50 344 1.0 3.0 0.00 0.11 0.00 93 1008.8
20260510073929 50 344 2.0 3.0 0.00 0.11 0.00 93 1008.8
20260510073429 50 355 0.0 1.0 0.00 0.11 0.00 93 1008.8
20260510072929 50 355 1.0 2.0 0.00 0.11 0.00 93 1008.7
20260510072429 50 355 0.0 3.0 0.00 0.11 0.00 93 1008.7
20260510071929 50 355 0.0 1.0 0.00 0.11 0.00 93 1008.7
20260510071429 50 355 1.0 4.0 0.00 0.11 0.00 93 1008.3
20260510070929 50 311 2.0 4.0 0.00 0.11 0.00 93 1008.3
20260510070429 50 350 3.0 3.0 0.00 0.11 0.00 92 1008.3
20260510065929 50 350 0.0 0.0 0.00 0.11 0.00 92 1008.3
20260510065429 50 350 0.0 2.0 0.00 0.11 0.00 93 1008.3
20260510064929 50 350 0.0 0.0 0.00 0.11 0.00 93 1008.3
20260510064429 50 350 0.0 0.0 0.00 0.11 0.00 93 1008.3
20260510063929 50 350 0.0 0.0 0.00 0.11 0.00 92 1008.3
20260510063429 50 350 0.0 2.0 0.00 0.11 0.00 92 1008.3
20260510062929 50 350 1.0 2.0 0.00 0.11 0.00 92 1008.3
20260510062429 50 350 0.0 1.0 0.00 0.11 0.00 92 1008.3
20260510061929 50 350 0.0 0.0 0.00 0.11 0.00 92 1008.3
20260510061432 50 350 0.0 0.0 0.00 0.11 0.00 92 1008.5
20260510060929 51 350 0.0 0.0 0.00 0.11 0.00 92 1008.5
20260510060429 51 350 0.0 0.0 0.00 0.11 0.00 92 1008.5
20260510055929 51 350 0.0 0.0 0.00 0.11 0.00 92 1008.7
20260510055429 51 350 0.0 0.0 0.00 0.11 0.00 92 1008.7
20260510054929 51 350 0.0 0.0 0.00 0.11 0.00 92 1008.7
20260510054432 51 350 0.0 0.0 0.00 0.11 0.00 92 1008.8
20260510053929 51 350 0.0 0.0 0.00 0.11 0.00 92 1008.8
20260510053432 51 350 0.0 0.0 0.00 0.11 0.00 92 1008.8
20260510052929 51 350 0.0 0.0 0.00 0.11 0.00 92 1008.7
20260510052429 51 350 0.0 0.0 0.00 0.11 0.00 92 1008.7
20260510051929 51 350 0.0 0.0 0.00 0.11 0.00 92 1008.7
20260510051429 52 350 0.0 0.0 0.00 0.11 0.00 92 1008.8
20260510050929 52 350 0.0 0.0 0.00 0.11 0.00 92 1008.8
20260510050429 52 350 0.0 0.0 0.00 0.11 0.00 92 1008.8
20260510045929 52 350 0.0 0.0 0.00 0.11 0.00 92 1008.8
20260510045429 52 350 0.0 0.0 0.00 0.11 0.00 92 1008.8
20260510044929 52 350 0.0 0.0 0.00 0.11 0.00 92 1008.8
20260510044429 52 350 0.0 0.0 0.00 0.11 0.00 92 1008.9
20260510043932 52 350 0.0 0.0 0.00 0.11 0.00 92 1008.9
20260510043429 52 350 0.0 0.0 0.00 0.11 0.00 91 1008.9
20260510042929 52 350 0.0 0.0 0.00 0.11 0.00 91 1008.9
20260510042429 52 350 0.0 0.0 0.00 0.11 0.00 91 1008.9
20260510041929 52 350 0.0 0.0 0.00 0.11 0.00 91 1008.9
20260510041429 52 350 0.0 0.0 0.00 0.11 0.00 92 1008.8
20260510040929 52 350 0.0 0.0 0.00 0.11 0.00 91 1008.8
20260510040429 52 350 0.0 0.0 0.00 0.11 0.00 91 1008.8
20260510035932 53 350 0.0 1.0 0.00 0.11 0.00 91 1008.8
20260510035429 52 350 1.0 2.0 0.00 0.11 0.00 91 1008.8
20260510034929 52 350 0.0 0.0 0.00 0.11 0.00 91 1008.8
20260510034429 52 350 0.0 0.0 0.00 0.11 0.00 91 1008.6
20260510033929 52 350 0.0 0.0 0.00 0.11 0.00 90 1008.6
20260510033432 52 350 0.0 0.0 0.00 0.11 0.00 90 1008.6
20260510032929 52 350 0.0 0.0 0.00 0.11 0.00 90 1008.5
20260510032429 53 350 0.0 0.0 0.00 0.11 0.00 90 1008.5
20260510031929 53 350 0.0 0.0 0.00 0.11 0.00 90 1008.5
20260510031429 53 350 0.0 0.0 0.00 0.11 0.00 90 1008.6
20260510030929 53 350 0.0 0.0 0.00 0.11 0.00 90 1008.6
20260510030432 53 350 0.0 0.0 0.00 0.11 0.00 90 1008.6
20260510025929 53 350 0.0 0.0 0.00 0.11 0.00 89 1008.5
20260510025429 53 350 0.0 0.0 0.00 0.11 0.00 90 1008.5
20260510024929 53 350 0.0 0.0 0.00 0.11 0.00 90 1008.5
20260510024429 53 350 0.0 0.0 0.00 0.11 0.00 90 1008.5
20260510023931 53 350 0.0 0.0 0.00 0.11 0.00 89 1008.5
20260510023431 54 350 0.0 0.0 0.00 0.11 0.00 89 1008.5
20260510022928 54 350 0.0 0.0 0.00 0.11 0.00 89 1008.3
20260510022429 54 350 0.0 0.0 0.00 0.11 0.00 89 1008.3
20260510021929 54 350 0.0 0.0 0.00 0.11 0.00 89 1008.3
20260510021429 54 350 0.0 0.0 0.00 0.11 0.00 89 1008.3
20260510020929 54 350 0.0 0.0 0.00 0.11 0.00 89 1008.3
20260510020428 54 350 0.0 0.0 0.00 0.11 0.00 89 1008.3
20260510015929 54 350 0.0 0.0 0.00 0.11 0.00 89 1008.4
20260510015429 55 350 0.0 0.0 0.00 0.11 0.00 89 1008.4
20260510014929 55 350 0.0 0.0 0.00 0.11 0.00 89 1008.4
20260510014428 55 350 0.0 0.0 0.00 0.11 0.00 89 1008.5
20260510013929 55 350 0.0 0.0 0.00 0.11 0.00 89 1008.5
20260510013429 55 350 0.0 0.0 0.00 0.11 0.00 89 1008.5
20260510012928 55 350 0.0 0.0 0.00 0.11 0.00 89 1008.3
20260510012428 55 350 0.0 0.0 0.00 0.11 0.00 89 1008.3
20260510011929 55 350 0.0 0.0 0.00 0.11 0.00 89 1008.3
20260510011428 55 350 0.0 0.0 0.00 0.11 0.00 89 1008.2
20260510010928 56 350 0.0 0.0 0.00 0.11 0.00 89 1008.2
20260510010428 56 350 0.0 0.0 0.00 0.11 0.00 89 1008.2
20260510005928 56 350 0.0 0.0 0.00 0.11 0.00 88 1008.1
20260510005428 56 350 0.0 0.0 0.00 0.11 0.00 88 1008.1
20260510004928 56 350 0.0 0.0 0.00 0.11 0.00 88 1008.1
20260510004431 56 350 0.0 0.0 0.00 0.11 0.00 88 1007.9
20260510003928 57 350 0.0 0.0 0.00 0.11 0.00 88 1007.9
20260510003429 57 350 0.0 0.0 0.00 0.11 0.00 88 1007.9
20260510002928 57 350 0.0 0.0 0.00 0.11 0.00 88 1007.8
20260510002428 57 350 0.0 0.0 0.00 0.11 0.00 88 1007.8
20260510001928 57 350 0.0 0.0 0.00 0.11 0.00 88 1007.8
20260510001428 57 350 0.0 0.0 0.00 0.11 0.00 88 1007.8
20260510000928 57 350 0.0 0.0 0.00 0.11 0.00 88 1007.8
20260510000428 58 350 0.0 0.0 0.00 0.11 0.00 89 1007.8
20260509235928 58 350 0.0 0.0 0.00 0.11 0.00 89 1008.0
20260509235428 58 350 0.0 0.0 0.00 0.11 0.00 89 1008.0
20260509234928 58 350 0.0 0.0 0.00 0.11 0.00 88 1008.0
20260509234428 58 350 0.0 3.0 0.00 0.11 0.00 88 1007.7
20260509233930 58 350 0.0 3.0 0.00 0.11 0.00 88 1007.7
20260509233428 58 350 2.0 3.0 0.00 0.11 0.00 88 1007.7
20260509232931 58 5 0.0 4.0 0.00 0.11 0.00 88 1007.7
20260509232431 58 13 1.0 3.0 0.00 0.11 0.00 88 1007.7
20260509231928 58 45 0.0 4.0 0.00 0.11 0.00 88 1007.7
20260509231428 58 30 1.0 3.0 0.00 0.11 0.00 88 1007.7
20260509230928 58 67 0.0 5.0 0.00 0.11 0.00 88 1007.7
20260509230428 58 86 1.0 4.0 0.00 0.11 0.00 88 1007.7
20260509225928 58 44 1.0 3.0 0.00 0.11 0.00 88 1007.7
20260509225428 58 80 0.0 3.0 0.00 0.11 0.00 88 1007.7
20260509224928 58 52 1.0 5.0 0.00 0.11 0.00 87 1007.7
20260509224428 58 146 3.0 5.0 0.00 0.11 0.00 87 1007.8
20260509223928 58 109 1.0 6.0 0.03 0.11 0.00 87 1007.8
20260509223428 59 96 1.0 5.0 0.07 0.11 0.00 86 1007.8
20260509222928 59 73 3.0 6.0 0.11 0.11 0.00 85 1008.1
20260509222428 59 80 0.0 4.0 0.11 0.11 0.00 85 1008.1
20260509221928 59 9 1.0 3.0 0.11 0.11 0.00 85 1008.1
20260509221428 59 36 0.0 4.0 0.11 0.11 0.00 85 1008.3
20260509220928 60 60 2.0 3.0 0.11 0.11 0.00 84 1008.3
20260509220431 60 49 3.0 4.0 0.11 0.11 0.00 84 1008.3
20260509215931 60 40 0.0 2.0 0.11 0.11 0.00 84 1008.4
20260509215431 60 61 1.0 3.0 0.11 0.11 0.00 82 1008.4
20260509214928 60 341 1.0 3.0 0.11 0.11 0.00 81 1008.4
20260509214428 60 42 0.0 4.0 0.11 0.11 0.00 81 1008.3
20260509213928 61 288 1.0 1.0 0.07 0.07 0.00 79 1008.3
20260509213428 61 28 0.0 4.0 0.03 0.03 0.00 78 1008.3
20260509212928 61 340 1.0 6.0 0.00 0.00 0.00 75 1008.4
20260509212428 61 302 4.0 4.0 0.00 0.00 0.00 75 1008.4
20260509211928 61 277 1.0 5.0 0.00 0.00 0.00 74 1008.4
20260509211428 61 329 4.0 6.0 0.00 0.00 0.00 74 1008.2
20260509210928 61 313 3.0 5.0 0.00 0.00 0.00 73 1008.2
20260509210431 61 317 3.0 5.0 0.00 0.00 0.00 74 1008.2
20260509205928 62 5 2.0 5.0 0.00 0.00 0.00 74 1007.8
20260509205428 62 34 4.0 8.0 0.00 0.00 0.00 74 1007.8
20260509204928 62 5 6.0 7.0 0.00 0.00 0.00 74 1007.8
20260509204428 62 35 3.0 4.0 0.00 0.00 0.00 73 1007.9
20260509203928 62 351 1.0 9.0 0.00 0.00 0.00 73 1007.9
20260509203428 62 324 2.0 7.0 0.00 0.00 0.00 74 1007.9
20260509202928 62 333 7.0 9.0 0.00 0.00 0.00 75 1008.1
20260509202428 62 341 3.0 8.0 0.00 0.00 0.00 75 1008.1
20260509201928 62 21 5.0 8.0 0.00 0.00 0.00 75 1008.1
20260509201428 62 335 5.0 9.0 0.00 0.00 0.00 76 1008.0
20260509200928 62 40 2.0 10.0 0.00 0.00 0.00 75 1008.0
20260509195928 62 355 8.0 13.0 0.00 0.00 0.00 74 1008.1
20260509195428 62 327 5.0 11.0 0.00 0.00 0.00 75 1008.1
20260509194928 62 295 7.0 12.0 0.00 0.00 0.00 74 1008.1
20260509194428 62 299 7.0 10.0 0.00 0.00 0.00 75 1008.2
20260509193928 62 330 10.0 10.0 0.00 0.00 0.00 74 1008.2
20260509193431 62 308 6.0 9.0 0.00 0.00 0.00 73 1008.2
20260509192928 62 325 5.0 13.0 0.00 0.00 0.00 73 1008.3
20260509192428 62 296 5.0 11.0 0.00 0.00 0.00 72 1008.3
20260509191928 63 308 10.0 12.0 0.00 0.00 0.00 72 1008.3
20260509191428 63 310 6.0 10.0 0.00 0.00 0.00 71 1008.4
20260509190928 63 297 5.0 10.0 0.00 0.00 0.00 72 1008.4
20260509190428 63 291 2.0 10.0 0.00 0.00 0.00 71 1008.4
20260509185928 63 284 12.0 13.0 0.00 0.00 0.00 70 1008.5
20260509185428 63 312 9.0 11.0 0.00 0.00 0.00 70 1008.5
20260509184928 63 305 5.0 11.0 0.00 0.00 0.00 68 1008.5
20260509184431 64 317 6.0 8.0 0.00 0.00 0.00 68 1008.4
20260509183928 64 270 2.0 8.0 0.00 0.00 0.00 68 1008.4
20260509183428 64 262 7.0 11.0 0.00 0.00 0.00 68 1008.4
20260509182928 64 280 2.0 7.0 0.00 0.00 0.00 69 1008.3
20260509182428 64 294 4.0 7.0 0.00 0.00 0.00 70 1008.3
20260509181931 64 230 1.0 7.0 0.00 0.00 0.00 68 1008.3
20260509181428 64 326 4.0 6.0 0.00 0.00 0.00 70 1008.3
20260509180928 64 329 4.0 7.0 0.00 0.00 0.00 69 1008.3
20260509180427 64 277 4.0 11.0 0.00 0.00 0.00 68 1008.3
20260509175928 64 280 6.0 8.0 0.00 0.00 0.00 69 1008.5
20260509175428 65 314 1.0 6.0 0.00 0.00 0.00 69 1008.5
20260509174928 65 288 2.0 5.0 0.00 0.00 0.00 69 1008.5